RH
39 34 30 26 23 22 21 21 20 20 21 21 21 21 22 23 22 23 24 25 26 28 30 31 32 34 35 37 41 46 51 55 52 53 65 76 82 80 81 92 95 85 76 71 67 66 65 68 72 74 73 74 77 71 62 62 63 65 73 79 79 78 83
29 26 23 22 21 21 21 21 21 21 21 21 21 21 21 22 22 22 22 22 23 24 24 25 25 26 28 29 31 35 38 40 44 58 69 70 77 82 80 88 97 90 81 75 71 67 65 66 69 71 70 71 73 69 61 58 58 68 82 83 78 80 84
24 23 23 22 23 23 22 23 22 22 22 22 22 23 23 23 23 23 24 23 24 25 25 26 26 26 27 28 30 31 33 44 55 68 78 75 78 89 88 87 95 96 90 84 78 72 68 64 64 66 67 69 72 70 68 69 70 77 85 85 85 87 87
24 25 25 24 24 23 23 23 23 23 23 24 25 25 25 26 26 27 28 28 28 28 29 30 30 30 30 29 31 30 36 57 66 69 86 95 91 95 99 95 97 100 97 93 86 78 73 68 66 66 66 70 72 71 72 75 77 81 85 88 87 86 88
27 26 25 24 23 23 22 22 23 24 25 25 26 27 27 28 29 30 31 32 33 33 33 33 34 36 37 35 36 38 43 53 53 54 79 99 98 98 100 99 99 99 99 98 93 86 79 72 69 67 66 69 71 71 70 67 68 78 87 91 86 81 87
28 26 25 24 23 22 23 23 24 24 26 26 26 27 28 29 31 34 36 38 39 39 40 41 41 45 50 50 50 53 57 57 53 55 72 90 98 100 100 100 99 96 97 98 94 89 82 73 69 67 63 63 68 74 72 66 67 76 82 85 82 79 83
29 27 26 25 25 24 24 25 26 26 26 26 27 27 28 30 34 38 41 43 46 50 52 54 56 58 64 68 69 72 75 75 76 80 87 94 100 100 99 100 98 95 94 91 86 82 77 69 65 62 59 59 68 76 75 73 76 74 69 71 75 78 80
29 28 27 26 26 26 27 27 27 27 26 27 28 28 30 36 43 47 50 51 54 61 66 71 75 73 72 76 81 83 86 90 94 98 100 100 100 99 100 99 95 92 89 81 75 73 71 68 64 60 58 58 62 66 66 71 78 75 67 67 70 75 76
30 28 27 27 27 27 27 28 27 26 27 28 27 29 33 38 43 47 50 53 59 67 73 77 82 82 77 80 88 90 92 95 98 100 100 100 99 100 100 100 96 92 87 81 77 72 67 65 62 57 56 57 59 61 63 72 81 78 70 67 68 70 69
33 30 28 28 28 28 27 28 27 27 28 28 32 45 54 52 49 48 49 55 65 76 84 86 88 89 84 84 91 95 96 98 99 99 100 100 101 101 99 100 100 94 89 85 82 76 71 69 67 63 62 62 63 65 66 73 82 80 71 65 64 62 60
34 30 29 28 28 29 29 29 28 28 29 28 37 60 79 81 79 78 74 73 79 87 95 98 98 98 97 94 95 98 99 101 99 96 94 94 96 101 101 100 101 98 94 90 86 83 81 78 76 74 70 67 67 66 65 72 82 80 70 64 62 60 56
31 28 28 28 29 29 29 29 29 28 29 29 33 52 80 95 98 100 98 96 97 98 98 100 98 97 98 96 93 89 86 88 86 82 84 87 90 96 99 99 100 100 99 96 93 91 90 87 86 85 81 78 77 75 74 78 83 80 73 68 67 67 64
28 28 29 29 29 29 29 29 29 28 29 30 28 41 75 99 99 94 94 91 89 85 81 86 91 91 89 89 85 75 65 64 66 66 70 76 80 85 88 91 95 98 100 101 99 98 97 94 94 93 90 88 91 93 92 90 85 78 74 74 76 77 79
28 29 29 29 29 29 29 28 29 29 28 31 29 35 66 92 85 71 66 60 56 54 53 62 73 78 76 72 67 60 54 55 59 62 66 70 74 77 78 79 82 85 89 92 94 98 100 99 99 101 99 99 101 98 91 87 83 80 81 86 90 92 94
30 29 29 30 28 29 30 28 30 31 29 33 32 33 60 85 75 56 48 41 38 38 40 45 55 61 61 56 51 51 53 58 64 69 74 77 78 77 79 83 84 83 81 77 77 84 89 88 92 98 97 93 89 83 79 84 91 95 97 97 95 93 90
30 30 30 30 30 30 31 31 32 33 32 34 32 35 59 78 68 51 44 39 36 37 39 42 48 55 56 54 52 51 54 61 69 76 81 83 82 83 87 91 93 94 91 80 77 86 90 87 89 93 92 87 83 83 87 96 101 99 95 90 83 78 75
32 32 32 32 32 32 32 33 35 34 33 35 34 38 55 66 64 60 54 44 38 39 41 42 45 50 55 57 55 54 58 64 71 79 85 88 90 93 96 96 95 98 99 89 84 90 94 93 94 94 93 94 97 100 100 100 99 92 83 78 72 66 64
35 34 34 33 33 34 34 34 35 35 34 35 36 39 47 59 70 72 61 48 43 43 45 47 48 50 56 59 59 61 66 70 76 87 95 98 99 100 100 100 98 99 100 96 90 82 75 76 81 84 87 87 89 95 97 97 98 91 80 75 69 63 62
36 35 34 34 34 35 35 34 34 35 35 36 38 40 47 63 80 80 68 60 59 59 59 59 59 59 61 63 65 68 71 72 77 91 100 100 100 100 99 101 101 100 99 100 99 94 86 81 77 79 85 86 83 86 90 93 98 96 85 77 73 68 67
36 35 36 36 36 35 34 33 33 35 36 37 39 41 47 62 76 79 74 70 69 71 72 71 72 73 72 72 73 73 71 68 73 89 101 101 99 101 100 100 100 100 100 100 100 100 100 96 85 80 86 91 90 90 88 88 95 99 93 86 81 76 74
38 38 37 36 34 33 33 33 33 35 38 40 41 43 46 54 61 65 69 74 76 77 80 80 81 83 82 80 78 75 75 76 79 91 101 101 99 100 100 100 100 100 100 101 100 99 99 98 93 89 91 94 95 95 95 93 95 99 100 97 91 84 78
40 39 36 34 34 33 32 34 34 35 38 40 42 44 46 50 53 54 64 81 89 87 87 87 84 82 80 76 74 73 77 85 92 98 101 101 101 101 100 99 101 100 99 100 99 94 89 87 86 84 84 86 88 91 96 100 100 100 101 101 98 91 87
39 38 36 35 34 32 31 32 34 35 38 40 42 44 46 50 53 54 63 82 93 92 89 87 84 81 79 76 75 74 76 86 97 101 101 101 101 100 100 100 100 99 100 100 97 90 84 81 79 77 75 77 81 87 95 101 102 100 100 101 98 92 89
42 40 38 36 34 32 31 32 32 34 36 39 41 44 47 52 56 58 62 74 85 90 92 94 91 86 81 77 75 75 81 92 100 100 100 102 101 99 100 101 100 100 100 99 95 89 82 78 76 73 71 73 78 82 87 91 91 89 90 93 92 87 82
47 42 41 39 35 32 31 32 33 34 35 38 41 44 48 53 58 61 65 71 78 85 90 92 85 77 74 73 72 78 91 101 102 100 100 100 99 101 101 99 99 99 97 94 91 87 82 78 76 73 73 77 80 78 79 83 84 83 83 84 86 84 77
48 46 45 42 36 33 33 33 34 36 38 41 43 45 49 55 59 62 67 73 76 77 78 79 77 76 78 79 80 87 97 100 98 99 98 93 93 100 102 98 95 95 94 90 87 85 83 80 77 75 77 83 85 83 83 88 91 91 89 88 89 85 79
47 47 48 47 44 43 43 40 36 38 43 47 50 53 58 66 73 77 81 86 88 87 88 90 93 94 92 86 83 87 91 91 92 98 100 96 96 100 101 97 94 95 97 95 90 88 87 84 82 84 86 87 88 88 89 92 96 95 90 86 87 85 81
48 46 47 52 55 56 57 52 43 40 43 49 54 59 67 79 91 96 97 98 99 99 99 100 100 100 99 96 94 94 95 95 96 99 100 99 97 96 97 98 98 98 100 100 98 97 95 92 89 90 90 88 87 88 90 93 97 96 89 83 84 85 80
48 46 48 54 57 59 63 59 50 45 46 49 53 58 67 84 98 101 99 100 100 100 100 101 99 97 95 94 94 95 92 88 88 90 92 94 94 92 91 93 98 99 98 98 100 100 97 94 92 91 89 87 85 84 85 88 91 90 87 85 86 85 79
46 46 52 57 56 54 56 56 52 52 54 55 58 61 67 83 98 102 100 100 101 100 100 100 97 91 87 85 85 85 82 77 78 80 82 84 87 88 86 86 89 92 93 94 97 98 96 94 92 88 86 85 83 79 78 80 85 88 88 88 86 81 76
44 45 51 57 57 56 56 56 56 58 60 62 65 66 70 84 98 102 100 100 100 100 101 99 93 87 84 82 81 80 79 76 77 79 79 79 79 79 82 85 85 84 87 90 93 94 94 93 90 87 85 84 83 79 75 77 82 86 88 88 86 81 76
42 44 48 54 58 60 61 60 61 64 68 71 73 73 75 86 98 102 101 100 101 101 101 99 92 86 83 81 80 80 79 78 78 79 79 80 79 76 77 80 82 83 86 88 88 89 90 90 88 88 87 86 84 83 80 79 81 83 85 86 85 82 81
43 45 47 51 54 56 58 60 65 71 75 77 79 78 77 80 89 95 95 98 101 101 99 95 89 85 83 82 81 82 81 79 80 81 81 81 81 79 77 77 82 89 93 92 90 91 90 89 89 89 89 88 88 88 85 82 81 80 81 83 83 81 82
49 47 46 48 51 55 60 65 70 76 79 80 82 82 79 80 88 93 92 94 101 103 99 93 89 85 84 83 83 83 83 82 82 84 84 84 84 84 83 83 87 93 95 94 93 93 93 92 92 91 90 88 87 87 86 84 84 81 80 80 79 78 78
55 49 49 53 56 58 63 70 75 79 82 83 84 84 83 88 96 98 93 92 97 99 97 93 90 87 85 84 84 84 84 85 85 86 87 86 86 86 88 88 89 90 92 93 94 93 93 94 95 95 94 91 88 87 86 84 83 81 79 80 80 78 78
65 62 63 64 60 55 58 67 77 82 84 85 85 84 90 98 101 96 90 89 90 90 90 90 89 88 86 86 86 86 86 86 88 89 89 90 89 89 90 90 90 89 91 94 94 93 95 97 97 97 97 95 93 92 90 87 85 83 81 82 83 82 80
Wind_Speed
14 13 12 11 11 10 9 8 7 7 6 5 5 4 4 4 3 4 3 4 4 4 4 4 5 5 6 6 5 6 6 6 8 8 6 5 5 5 6 5 6 9 11 11 11 13 14 14 16 18 18 19 20 22 25 24 22 22 20 19 19 18 18
13 12 11 10 9 8 8 7 6 5 5 4 4 4 3 3 3 4 4 4 5 5 6 6 6 7 7 8 8 8 8 8 9 8 7 7 6 6 6 6 6 8 11 12 11 11 14 15 15 17 16 16 19 22 24 24 24 21 18 18 19 18 17
11 11 9 8 8 7 6 6 5 4 4 4 3 3 3 3 4 4 4 5 6 6 7 7 7 8 8 9 9 9 9 9 9 8 7 8 8 7 8 8 7 8 10 12 13 12 13 14 14 15 16 15 17 20 21 21 21 19 18 18 18 16 17
10 9 8 7 6 6 5 4 4 3 3 3 3 3 3 4 4 5 5 6 7 7 8 8 9 9 9 10 10 11 10 8 8 9 7 7 7 6 7 7 7 8 9 12 14 13 12 14 15 16 16 15 16 17 17 17 18 17 17 16 17 17 18
9 8 7 6 5 5 4 3 3 2 2 3 3 3 4 4 5 6 6 7 7 8 9 9 10 10 10 11 11 11 11 10 11 11 8 6 6 6 6 7 7 8 9 11 14 14 13 13 15 16 15 14 14 16 15 16 16 15 14 15 16 17 17
8 7 6 5 4 3 3 2 2 2 2 3 3 3 4 5 5 6 7 7 8 9 9 10 10 11 11 11 12 12 12 13 13 12 10 8 8 8 8 8 8 9 10 11 14 15 14 13 13 14 15 13 13 14 16 16 15 13 12 13 15 16 15
7 6 5 4 3 2 2 1 1 1 2 2 3 4 5 5 6 7 7 8 8 9 10 10 11 11 11 11 12 12 13 13 12 10 8 8 8 9 9 9 9 10 11 13 15 15 14 13 12 13 15 14 13 13 14 14 14 14 13 13 15 16 16
6 4 4 3 2 1 1 0 1 2 2 3 3 4 5 6 6 7 8 9 10 10 11 11 11 12 12 12 12 12 12 12 9 7 7 7 7 8 10 10 10 11 12 14 15 15 14 13 13 13 14 13 12 11 11 11 13 15 16 15 16 16 16
4 3 3 2 1 0 1 1 2 2 3 3 4 5 6 7 8 9 9 10 11 11 11 11 11 12 13 13 12 13 13 12 11 9 9 8 8 9 10 10 10 11 12 13 14 15 14 13 13 12 12 12 11 11 13 12 13 15 16 17 17 17 16
3 2 2 1 1 2 2 2 2 3 3 4 4 6 8 9 10 10 11 12 12 12 12 12 12 13 14 13 13 13 14 13 13 13 13 12 12 12 11 10 11 11 12 13 14 15 14 14 14 13 12 13 13 13 15 14 13 15 16 16 17 16 14
2 2 2 2 3 3 2 2 3 3 3 4 4 5 7 8 9 9 10 11 12 11 10 9 10 11 11 12 13 13 14 15 16 17 17 17 17 16 15 14 13 12 12 14 15 16 14 15 16 15 13 14 15 15 16 15 13 14 17 15 14 13 12
2 3 3 3 3 2 2 3 3 3 3 4 4 5 6 6 7 7 7 7 8 9 9 9 9 10 11 13 15 15 17 19 20 21 21 20 20 20 19 18 17 16 15 15 16 17 17 16 16 16 15 13 14 14 15 16 15 15 16 16 15 14 15
3 4 4 4 3 3 3 4 4 4 4 4 5 5 5 6 7 7 8 9 10 12 14 14 13 12 13 14 15 16 17 19 20 21 21 21 21 21 22 22 22 22 21 19 17 18 20 18 16 17 16 13 11 14 15 16 17 16 15 16 16 16 17
5 5 5 4 4 4 4 5 5 5 5 5 5 5 5 7 10 11 12 14 15 16 18 17 16 16 16 16 17 17 18 18 18 19 20 21 21 22 22 23 24 25 26 25 24 24 25 23 19 19 20 17 14 17 19 19 18 17 16 17 18 19 20
6 6 5 5 5 5 5 6 6 6 6 6 6 6 7 8 11 14 15 16 17 18 18 18 17 18 18 19 20 19 17 17 18 19 21 22 22 23 23 23 24 24 24 25 25 26 28 28 26 23 25 25 23 24 25 23 20 18 16 19 20 20 20
7 6 6 6 6 6 5 6 7 7 7 7 7 7 7 10 13 15 16 18 18 18 19 19 19 19 19 21 21 19 17 16 17 19 21 22 23 24 23 23 23 22 21 21 22 23 25 27 26 24 26 27 25 23 20 17 15 15 15 18 19 18 17
7 7 6 6 7 7 6 6 6 8 8 7 7 7 8 11 12 14 16 18 19 19 20 20 20 20 20 21 21 19 17 15 16 18 20 21 22 22 22 23 21 20 20 20 20 20 22 23 24 25 26 25 22 19 15 11 10 12 14 16 16 15 16
7 7 6 6 7 8 8 7 7 8 8 8 8 8 9 11 11 13 17 19 20 20 20 21 21 20 19 21 21 19 16 14 15 17 18 18 19 20 20 20 18 17 19 20 19 19 20 21 21 21 22 24 24 23 19 14 12 11 13 16 15 14 16
7 6 7 8 8 9 9 9 8 9 9 8 8 8 9 10 10 12 16 18 19 19 19 20 21 20 19 19 18 16 16 14 14 17 17 16 16 18 19 17 15 15 16 16 16 17 17 19 19 19 19 20 22 24 23 20 16 12 12 15 15 14 14
7 8 8 9 9 10 10 11 10 9 9 9 8 8 9 10 11 12 15 17 17 17 18 18 18 18 17 17 16 15 16 16 16 17 18 16 16 18 19 16 14 15 15 15 16 17 17 18 20 19 17 17 18 20 21 21 19 13 10 12 14 14 13
9 10 10 10 10 11 11 11 11 10 9 9 8 8 9 11 13 14 15 16 17 17 17 16 14 14 15 17 17 17 17 17 16 16 17 18 18 19 19 17 17 17 17 16 16 16 15 15 15 14 13 13 14 14 14 15 17 16 14 13 13 14 15
10 10 11 11 12 12 11 11 11 11 10 9 9 9 10 12 14 15 15 16 16 16 16 15 15 16 17 19 20 20 19 18 18 18 19 19 19 20 20 19 19 18 16 15 14 14 14 13 13 13 13 12 12 11 10 11 13 16 16 15 13 13 15
10 11 12 13 14 13 13 12 12 13 13 11 11 11 11 13 14 15 15 16 16 16 17 17 17 19 20 21 22 21 20 20 19 18 19 19 19 19 19 19 19 18 15 14 14 14 14 14 14 14 13 13 12 10 8 9 11 14 17 18 18 18 19
9 11 13 14 15 15 15 15 15 15 15 14 13 13 13 14 14 14 16 17 17 17 16 15 16 20 23 23 23 23 22 21 20 20 20 20 19 19 18 18 18 16 14 14 14 14 15 15 14 14 14 13 12 11 11 13 16 18 20 21 22 23 24
10 12 13 14 16 16 17 18 18 19 18 16 15 15 14 14 14 15 16 18 19 18 16 17 20 23 25 24 24 23 22 20 19 19 19 20 20 18 17 17 17 16 16 16 15 15 16 16 15 15 15 14 15 17 17 17 16 16 17 18 19 21 24
11 12 13 15 18 18 19 20 20 21 21 19 17 17 16 16 17 17 17 19 21 21 20 21 23 23 23 23 22 21 19 18 17 18 19 21 20 18 17 16 17 17 17 18 17 16 16 16 15 15 15 16 17 18 16 13 11 11 12 13 13 16 19
13 13 14 15 17 18 20 21 21 22 21 19 18 17 17 18 18 17 16 16 17 17 17 18 19 21 22 22 21 20 20 20 20 20 19 17 16 15 15 15 16 17 16 16 17 16 15 15 14 13 13 14 15 14 12 10 9 9 11 11 11 13 16
14 15 16 15 15 15 17 20 22 22 20 18 18 18 19 16 13 10 10 10 11 13 15 16 17 18 17 16 16 15 15 15 15 15 14 12 12 13 13 13 15 16 17 16 15 15 15 14 14 13 13 13 12 12 11 9 8 9 11 12 11 12 14
16 18 18 18 18 17 17 19 21 22 21 20 20 21 21 18 14 12 12 13 13 16 17 16 16 15 14 13 13 12 12 13 13 13 13 13 14 15 14 13 13 14 15 14 13 14 15 14 14 14 13 12 13 13 12 10 9 10 11 10 11 13 14
18 19 19 20 23 23 22 23 24 23 21 21 21 22 23 22 19 18 18 18 18 19 18 16 16 16 15 15 14 13 14 15 14 14 14 14 14 15 15 15 15 13 12 12 12 13 14 13 14 14 13 12 13 13 13 12 11 11 11 10 11 13 15
19 19 19 21 24 26 26 27 27 24 22 21 21 22 24 24 21 19 19 18 18 18 17 16 17 16 15 15 15 15 15 15 15 15 15 14 14 14 14 15 16 15 13 13 12 12 13 13 13 14 13 13 13 13 12 12 11 10 11 11 12 13 15
20 21 21 22 24 26 28 28 27 25 24 23 23 24 25 24 22 20 19 19 18 18 18 17 17 17 16 16 16 16 16 16 16 16 15 14 14 14 14 14 15 14 13 13 13 13 13 13 13 13 13 13 12 12 11 11 11 11 11 11 12 13 14
23 23 23 23 24 26 28 29 27 26 26 25 25 25 25 25 24 22 21 19 17 17 17 17 17 17 17 17 17 17 16 16 16 16 15 15 15 15 15 15 15 13 13 13 13 13 13 13 12 12 12 12 11 11 11 12 12 11 11 11 12 13 13
25 25 26 26 26 27 28 28 27 26 26 25 25 25 24 24 24 23 21 19 18 17 17 17 17 17 18 18 18 17 16 16 16 15 15 15 15 15 15 14 13 13 12 12 13 13 13 13 12 12 12 12 12 11 12 12 12 12 12 12 12 12 13
28 29 29 28 28 29 29 28 27 26 26 26 25 24 23 22 19 17 15 15 17 18 18 18 18 18 18 18 18 17 16 16 16 15 15 15 14 14 14 13 13 13 13 12 12 13 13 12 12 11 11 12 12 12 12 12 12 12 12 12 12 12 12
29 30 30 30 30 30 29 27 25 24 24 24 24 23 21 18 15 14 14 15 16 17 18 18 18 18 18 18 18 17 17 16 16 16 15 15 14 14 13 13 13 13 13 12 12 13 12 12 12 11 11 11 12 12 13 13 13 12 13 12 12 12 12
Wind_Direction
134 130 127 124 120 116 112 108 106 99 92 85 75 69 61 48 36 25 18 7 1 357 352 348 340 333 327 325 325 318 317 316 311 312 308 299 294 283 279 277 268 271 279 282 283 287 292 298 302 303 305 308 309 312 316 316 313 313 310 307 306 304 303
132 127 123 120 115 111 107 100 96 89 81 72 63 50 36 25 12 1 354 344 342 339 337 337 333 327 323 321 320 317 315 314 313 314 309 302 300 289 283 281 275 277 284 287 289 291 294 297 298 297 300 304 304 308 313 312 312 311 305 303 304 304 301
129 123 118 115 109 103 99 92 86 79 68 59 51 35 16 5 351 342 339 334 330 330 331 330 327 323 319 318 317 317 318 319 316 314 309 304 302 294 289 288 284 282 285 290 294 295 295 298 297 294 296 298 298 301 306 306 306 304 300 301 303 301 300
125 120 115 111 107 99 94 88 81 74 63 52 38 19 1 347 340 333 331 329 325 325 325 325 323 319 315 314 312 313 316 313 306 307 307 302 299 292 287 288 284 278 280 288 291 291 290 292 292 290 292 294 294 296 298 297 297 296 296 297 299 300 300
123 120 118 115 111 102 96 89 78 69 57 44 25 7 348 336 332 328 325 323 322 322 322 322 322 317 314 313 311 311 309 301 298 301 299 291 292 290 285 287 283 277 277 279 283 287 288 286 287 288 290 291 293 297 300 297 294 292 293 295 297 299 300
128 126 123 119 114 105 94 81 64 46 33 23 6 348 335 326 322 319 317 317 317 318 319 320 320 318 317 315 313 311 308 305 306 305 299 291 287 286 285 285 283 280 277 274 276 282 285 284 284 286 290 293 293 297 301 302 299 295 295 299 301 301 301
133 131 128 122 115 102 90 76 39 15 8 2 347 332 322 315 310 307 307 309 310 313 316 316 315 316 316 314 312 310 309 310 312 307 299 292 285 283 283 282 281 279 277 278 280 281 283 285 286 287 290 294 293 291 293 300 306 306 306 305 303 302 303
140 138 134 125 109 101 84 357 342 347 352 345 331 320 310 303 298 300 302 303 305 307 308 307 306 307 309 309 306 304 303 305 304 298 293 290 286 284 281 280 281 280 279 281 283 284 285 287 289 289 291 294 296 295 298 305 310 308 307 307 304 301 302
146 143 134 119 107 164 288 308 323 333 339 334 323 311 302 296 293 294 295 297 299 300 300 299 296 296 299 299 296 293 293 293 293 289 285 285 288 286 281 279 279 280 283 285 286 288 291 291 291 294 298 300 301 302 305 308 306 300 301 304 301 296 297
156 153 148 168 218 241 263 288 310 326 330 322 312 302 297 296 296 295 293 294 295 295 295 294 289 288 290 289 285 283 283 284 286 284 279 277 280 281 281 283 284 284 285 287 288 290 293 293 290 292 297 298 299 302 304 304 301 298 301 303 298 293 292
179 187 199 217 226 237 261 289 310 323 318 301 285 279 284 290 292 291 291 295 297 294 289 284 280 280 282 282 280 278 275 275 278 281 280 280 279 277 275 277 281 284 285 286 286 287 288 287 287 291 294 293 294 298 301 301 299 297 299 299 295 293 293
215 217 225 232 235 252 279 299 311 313 303 289 267 265 276 281 280 282 286 290 291 286 282 280 279 276 276 279 281 280 278 278 281 282 283 282 280 278 274 272 272 274 277 280 283 284 282 280 284 289 291 290 293 297 299 298 294 291 291 290 288 288 290
230 232 240 248 258 281 298 304 309 309 303 292 275 268 277 279 278 282 286 285 283 283 283 284 284 283 282 284 286 288 289 288 288 288 287 284 281 278 275 272 269 267 268 271 275 278 277 276 281 285 285 286 292 295 297 293 288 287 286 285 284 285 288
237 243 253 266 278 293 302 304 307 308 304 297 288 284 288 286 285 288 291 290 289 289 288 286 285 285 287 289 292 297 300 299 295 293 292 290 287 282 278 274 271 268 267 268 269 269 270 272 273 275 277 278 282 287 287 283 281 283 283 282 283 284 286
243 250 262 276 286 294 302 306 308 307 303 301 300 299 297 290 288 291 294 294 294 293 292 290 288 288 290 293 296 299 301 299 296 293 291 290 289 287 284 279 275 274 274 275 275 273 272 274 272 270 273 277 281 282 281 277 274 274 277 281 284 284 284
245 256 266 277 287 296 305 305 302 302 304 307 306 301 293 288 289 292 293 293 294 294 292 290 288 288 289 290 292 294 295 292 287 285 286 287 286 286 285 282 280 279 279 283 284 280 277 279 280 278 277 280 281 278 273 270 269 268 271 279 284 285 285
246 256 265 277 289 296 300 299 298 302 306 308 304 294 284 283 285 286 287 289 292 292 290 288 286 285 284 284 286 289 289 283 279 280 282 283 284 286 284 284 285 285 284 288 289 282 278 278 278 276 273 272 273 274 273 269 265 269 275 280 284 287 287
248 259 274 286 291 292 295 300 304 305 306 305 298 287 280 279 278 278 282 288 292 292 290 288 287 283 279 278 281 284 283 278 278 281 281 280 282 283 282 284 288 288 288 291 293 292 289 283 276 274 270 264 263 269 275 275 270 275 282 280 279 284 289
257 273 283 287 287 289 297 306 310 307 302 300 293 281 275 274 271 272 279 285 288 289 288 287 287 286 282 279 279 281 280 276 275 279 280 279 279 279 279 282 286 285 284 287 287 289 291 288 284 281 274 267 262 264 269 273 274 278 278 275 276 281 287
271 276 277 280 288 296 303 307 308 304 299 293 285 275 270 267 264 267 276 282 283 283 283 283 283 284 285 284 282 282 283 279 274 275 277 276 272 271 275 281 283 279 278 280 280 280 280 282 284 283 274 267 265 263 266 270 272 269 263 266 274 276 277
270 275 281 289 296 301 303 303 302 298 293 288 283 277 270 267 268 271 276 279 279 278 277 277 276 275 277 281 284 287 287 282 276 273 273 270 266 266 272 278 279 277 276 276 276 277 275 275 277 276 269 263 262 260 260 263 266 264 257 256 265 272 274
269 282 293 299 300 299 299 299 298 296 293 287 283 279 273 271 273 274 274 274 274 274 273 274 276 275 276 280 285 288 286 280 275 272 269 267 266 268 272 274 274 274 275 272 270 271 273 272 272 273 271 268 265 262 257 256 260 260 256 255 259 264 269
283 294 298 301 302 302 301 301 298 296 294 290 287 284 279 274 273 272 269 266 267 270 272 275 277 279 281 285 288 289 285 279 274 270 268 267 268 269 272 273 271 269 266 265 265 265 268 270 272 273 275 274 273 272 267 261 259 258 258 261 264 265 265
292 296 298 300 302 303 304 304 301 297 295 294 295 292 286 279 274 271 267 265 267 270 271 271 274 277 281 284 286 285 282 276 271 267 266 267 268 270 272 271 267 263 260 259 258 258 263 268 267 269 273 274 274 278 278 274 272 269 266 265 266 267 267
287 292 295 297 298 301 302 302 300 297 296 298 300 298 291 283 277 276 273 269 269 269 269 270 274 278 280 282 283 281 278 273 268 265 264 266 268 268 269 266 261 259 257 255 253 255 261 264 265 268 272 271 275 284 287 283 278 275 271 267 266 268 270
281 286 289 291 294 298 298 297 298 298 298 301 304 301 296 292 289 288 285 280 277 278 279 279 279 281 282 283 281 276 271 268 268 267 268 271 271 266 261 258 255 253 251 251 254 257 260 261 264 269 270 271 277 285 285 276 268 268 269 267 267 270 272
277 280 283 286 288 291 291 292 295 297 297 302 306 305 302 300 298 294 290 284 281 280 280 280 280 282 285 286 284 279 274 273 272 268 267 269 265 257 252 250 249 249 249 252 256 260 262 263 265 267 268 271 275 274 268 260 255 259 266 267 267 269 272
272 275 276 276 277 280 282 285 291 294 297 300 302 301 300 298 291 284 279 273 271 275 277 277 278 279 280 281 280 276 271 269 265 258 253 252 250 251 252 251 249 249 251 253 256 259 261 262 262 262 263 265 266 262 259 254 247 251 263 268 265 264 270
268 271 273 272 271 271 271 277 285 292 295 298 298 296 295 289 278 272 272 272 277 283 285 283 279 275 271 268 265 260 260 264 262 256 251 247 247 251 253 250 245 246 249 250 250 251 253 254 256 258 258 258 259 260 259 253 247 252 260 261 256 259 266
266 270 272 273 274 275 275 278 284 289 291 293 294 293 293 289 281 275 275 278 282 285 282 279 276 271 266 264 262 260 264 269 268 261 257 254 251 250 249 247 245 245 246 245 243 244 247 249 251 254 254 252 254 259 260 255 250 251 253 250 251 259 267
273 275 274 272 275 279 281 283 287 290 292 293 294 294 295 292 285 278 277 280 284 282 276 272 270 268 264 263 261 260 264 267 265 260 259 259 256 252 247 244 245 245 245 244 242 243 244 245 247 249 250 250 251 255 258 254 249 245 245 246 249 256 264
280 282 281 279 278 280 282 284 286 289 290 291 292 293 294 292 287 281 280 281 279 275 270 265 264 264 264 263 260 259 261 263 261 259 257 255 255 255 251 247 246 246 244 244 245 245 242 242 243 244 246 247 247 248 250 250 247 245 244 246 249 253 257
287 286 286 286 283 282 282 283 283 284 285 287 289 292 294 294 291 287 285 280 271 266 264 262 260 260 261 261 259 258 260 261 259 257 256 253 253 256 256 254 251 247 244 245 246 245 243 242 243 242 243 244 240 239 243 244 244 246 246 245 249 253 253
291 292 291 290 287 285 283 282 281 282 283 285 288 289 292 294 292 288 284 273 260 256 259 258 256 257 258 259 259 258 259 260 259 257 255 255 254 255 257 256 251 245 243 242 241 239 239 239 239 237 239 240 236 234 237 239 239 243 246 245 248 254 255
291 292 292 291 290 289 288 285 284 284 285 285 286 287 290 291 286 280 273 261 249 248 251 252 252 253 254 256 258 259 259 260 259 258 256 256 257 257 255 253 248 244 242 238 235 236 235 234 235 233 232 236 236 233 233 236 238 240 243 245 249 252 254
288 290 291 291 292 293 292 289 286 286 286 285 284 284 283 279 270 265 262 255 247 246 248 248 249 251 253 255 258 259 260 259 258 258 257 255 256 256 254 252 248 245 241 235 233 235 234 231 232 232 229 231 234 232 233 236 238 240 242 242 244 249 252